| time (UTC) | temp C | wind direction | speed KPH | gust KPH | rain 1hr cm | rain 24hr cm | rain mn cm | humidity % | barometer mb |
| 20260901063103 | 8 | 72 | 0.0 | 0.0 | 0.00 | 0.23 | 0.00 | 48 | 1021.7 |
| 20260901061606 | 8 | 72 | 0.0 | 0.0 | 0.00 | 0.23 | 0.00 | 52 | 1021.7 |
| 20260901060055 | 9 | 72 | 0.0 | 3.2 | 0.00 | 0.23 | 0.00 | 52 | 1021.6 |
| 20260901054556 | 9 | 72 | 0.0 | 1.6 | 0.00 | 0.23 | 0.00 | 47 | 1021.5 |
| 20260901053056 | 8 | 72 | 0.0 | 0.0 | 0.00 | 0.23 | 0.00 | 56 | 1021.4 |
| 20260901051549 | 8 | 72 | 0.0 | 0.0 | 0.00 | 0.23 | 0.00 | 57 | 1021.3 |
| 20260901050048 | 8 | 72 | 0.0 | 0.0 | 0.00 | 0.23 | 0.00 | 58 | 1021.2 |
| 20260901044603 | 8 | 72 | 0.0 | 0.0 | 0.00 | 0.23 | 0.00 | 59 | 1020.8 |
| 20260901043044 | 9 | 72 | 0.0 | 4.8 | 0.00 | 0.23 | 0.00 | 64 | 1020.6 |
| 20260901041540 | 9 | 99 | 0.0 | 3.2 | 0.00 | 0.23 | 0.00 | 65 | 1020.6 |
| 20260901040051 | 9 | 36 | 0.0 | 3.2 | 0.00 | 0.23 | 0.00 | 69 | 1020.4 |
| 20260901034536 | 9 | 36 | 0.0 | 4.8 | 0.00 | 0.23 | 0.23 | 70 | 1020.3 |
| 20260901033037 | 10 | 44 | 0.0 | 4.8 | 0.00 | 0.23 | 0.23 | 70 | 1020.7 |
| 20260901031536 | 9 | 94 | 0.0 | 0.0 | 0.00 | 0.23 | 0.23 | 71 | 1021.0 |
| 20260901030039 | 9 | 130 | 0.0 | 3.2 | 0.00 | 0.23 | 0.23 | 71 | 1021.2 |
| 20260901024537 | 10 | 280 | 0.0 | 3.2 | 0.00 | 0.23 | 0.23 | 71 | 1021.2 |
| 20260901023037 | 10 | 280 | 0.0 | 0.0 | 0.00 | 0.23 | 0.23 | 70 | 1021.1 |
| 20260901021534 | 10 | 280 | 0.0 | 0.0 | 0.00 | 0.23 | 0.23 | 71 | 1021.0 |
| 20260901020036 | 10 | 280 | 0.0 | 0.0 | 0.00 | 0.23 | 0.23 | 70 | 1021.0 |
| 20260901014531 | 11 | 280 | 0.0 | 0.0 | 0.00 | 0.23 | 0.23 | 69 | 1020.9 |
| 20260901013030 | 10 | 280 | 0.0 | 0.0 | 0.00 | 0.23 | 0.23 | 70 | 1021.0 |
| 20260901011530 | 11 | 280 | 0.0 | 0.0 | 0.00 | 0.23 | 0.23 | 68 | 1021.0 |
| 20260901010029 | 11 | 280 | 0.0 | 0.0 | 0.00 | 0.23 | 0.23 | 66 | 1020.9 |
| 20260901004528 | 11 | 280 | 0.0 | 0.0 | 0.00 | 0.23 | 0.23 | 65 | 1021.0 |
| 20260901003032 | 12 | 280 | 0.0 | 0.0 | 0.00 | 0.23 | 0.23 | 63 | 1020.9 |
| 20260901001532 | 13 | 280 | 0.0 | 0.0 | 0.00 | 0.23 | 0.23 | 62 | 1020.7 |
| 20260901000026 | 13 | 280 | 0.0 | 1.6 | 0.00 | 0.23 | 0.23 | 61 | 1020.5 |
| 20260831234529 | 14 | 280 | 0.0 | 4.8 | 0.00 | 0.23 | 0.23 | 60 | 1020.3 |
| 20260831233025 | 14 | 9 | 0.0 | 4.8 | 0.00 | 0.23 | 0.23 | 59 | 1020.1 |
| 20260831231534 | 15 | 311 | 0.0 | 4.8 | 0.00 | 0.23 | 0.23 | 58 | 1019.5 |
| 20260831230030 | 15 | 292 | 3.2 | 9.7 | 0.00 | 0.23 | 0.23 | 55 | 1019.1 |
| 20260831224545 | 15 | 325 | 3.2 | 14.5 | 0.00 | 0.23 | 0.23 | 53 | 1019.3 |
| 20260831223023 | 16 | 323 | 1.6 | 9.7 | 0.00 | 0.23 | 0.23 | 52 | 1018.6 |
| 20260831221522 | 16 | 228 | 4.8 | 12.9 | 0.00 | 0.23 | 0.23 | 50 | 1018.1 |
| 20260831220022 | 17 | 311 | 6.4 | 14.5 | 0.00 | 0.23 | 0.23 | 48 | 1017.8 |
| 20260831214525 | 17 | 236 | 6.4 | 14.5 | 0.00 | 0.23 | 0.23 | 44 | 1017.4 |
| 20260831213020 | 18 | 75 | 3.2 | 14.5 | 0.00 | 0.23 | 0.23 | 41 | 1017.0 |
| 20260831211520 | 18 | 294 | 3.2 | 12.9 | 0.00 | 0.23 | 0.23 | 38 | 1017.2 |
| 20260831210019 | 20 | 205 | 3.2 | 8.0 | 0.00 | 0.23 | 0.23 | 34 | 1017.1 |
| 20260831204518 | 22 | 232 | 3.2 | 8.0 | 0.00 | 0.23 | 0.23 | 26 | 1016.8 |
| 20260831203030 | 22 | 245 | 1.6 | 6.4 | 0.00 | 0.23 | 0.23 | 23 | 1016.7 |
| 20260831201515 | 22 | 252 | 3.2 | 6.4 | 0.00 | 0.23 | 0.23 | 23 | 1016.6 |
| 20260831200010 | 22 | 230 | 1.6 | 6.4 | 0.00 | 0.23 | 0.23 | 25 | 1016.7 |
| 20260831194510 | 21 | 201 | 1.6 | 6.4 | 0.00 | 0.23 | 0.23 | 25 | 1017.2 |
| 20260831193007 | 21 | 225 | 3.2 | 8.0 | 0.00 | 0.23 | 0.23 | 27 | 1017.3 |
| 20260831191513 | 21 | 246 | 1.6 | 8.0 | 0.00 | 0.23 | 0.23 | 27 | 1017.6 |
| 20260831190003 | 21 | 232 | 3.2 | 6.4 | 0.00 | 0.23 | 0.23 | 26 | 1018.1 |
| 20260831184600 | 21 | 213 | 1.6 | 6.4 | 0.00 | 0.23 | 0.23 | 28 | 1018.3 |
| 20260831183056 | 21 | 220 | 1.6 | 6.4 | 0.00 | 0.23 | 0.23 | 30 | 1018.6 |
| 20260831181552 | 21 | 234 | 1.6 | 8.0 | 0.00 | 0.23 | 0.23 | 29 | 1019.0 |
| 20260831180050 | 21 | 221 | 1.6 | 6.4 | 0.00 | 0.23 | 0.23 | 31 | 1019.2 |
| 20260831174549 | 20 | 230 | 1.6 | 4.8 | 0.00 | 0.23 | 0.23 | 30 | 1019.7 |
| 20260831173047 | 20 | 221 | 0.0 | 4.8 | 0.00 | 0.23 | 0.23 | 32 | 1020.0 |
| 20260831171543 | 20 | 212 | 0.0 | 4.8 | 0.00 | 0.23 | 0.23 | 31 | 1020.5 |
| 20260831170043 | 20 | 205 | 1.6 | 6.4 | 0.00 | 0.23 | 0.23 | 32 | 1020.8 |
| 20260831164540 | 19 | 22 | 0.0 | 6.4 | 0.00 | 0.23 | 0.23 | 34 | 1021.3 |
| 20260831163038 | 18 | 26 | 0.0 | 8.0 | 0.00 | 0.23 | 0.23 | 35 | 1021.4 |
| 20260831161535 | 18 | 200 | 0.0 | 0.0 | 0.00 | 0.23 | 0.23 | 34 | 1021.8 |
| 20260831160039 | 18 | 170 | 1.6 | 6.4 | 0.00 | 0.23 | 0.23 | 38 | 1022.1 |
| 20260831154554 | 18 | 89 | 0.0 | 3.2 | 0.00 | 0.23 | 0.23 | 39 | 1022.4 |
| 20260831153026 | 17 | 43 | 1.6 | 4.8 | 0.00 | 0.23 | 0.23 | 39 | 1022.6 |
| 20260831151528 | 17 | 354 | 0.0 | 3.2 | 0.00 | 0.23 | 0.23 | 41 | 1022.9 |
| 20260831150016 | 16 | 38 | 0.0 | 3.2 | 0.00 | 0.23 | 0.23 | 44 | 1023.2 |
| 20260831144514 | 15 | 38 | 0.0 | 1.6 | 0.00 | 0.23 | 0.23 | 46 | 1023.3 |
| 20260831143010 | 15 | 4 | 1.6 | 4.8 | 0.00 | 0.23 | 0.23 | 51 | 1023.3 |
| 20260831141504 | 14 | 358 | 0.0 | 0.0 | 0.00 | 0.23 | 0.23 | 53 | 1023.4 |
| 20260831134600 | 12 | 126 | 0.0 | 4.8 | 0.00 | 0.23 | 0.23 | 59 | 1023.6 |
| 20260831133051 | 11 | 83 | 0.0 | 1.6 | 0.00 | 0.23 | 0.23 | 64 | 1023.6 |
| 20260831131647 | 10 | 83 | 0.0 | 1.6 | 0.00 | 0.23 | 0.23 | 68 | 1023.6 |
| 20260831130052 | 8 | 83 | 0.0 | 3.2 | 0.00 | 0.23 | 0.23 | 77 | 1023.7 |
| 20260831124548 | 7 | 119 | 0.0 | 3.2 | 0.03 | 0.23 | 0.23 | 85 | 1023.8 |
| 20260831123040 | 6 | 119 | 0.0 | 0.0 | 0.03 | 0.23 | 0.23 | 84 | 1023.9 |
| 20260831121546 | 6 | 119 | 0.0 | 0.0 | 0.03 | 0.23 | 0.23 | 83 | 1023.9 |
| 20260831120039 | 6 | 119 | 0.0 | 1.6 | 0.03 | 0.23 | 0.23 | 83 | 1023.8 |
| 20260831114537 | 6 | 119 | 0.0 | 0.0 | 0.00 | 0.23 | 0.23 | 82 | 1023.7 |
| 20260831113134 | 7 | 119 | 0.0 | 0.0 | 0.00 | 0.23 | 0.23 | 82 | 1023.8 |
| 20260831111532 | 7 | 119 | 0.0 | 1.6 | 0.00 | 0.23 | 0.23 | 83 | 1023.5 |
| 20260831110033 | 7 | 119 | 0.0 | 0.0 | 0.00 | 0.23 | 0.23 | 83 | 1023.4 |
| 20260831104531 | 7 | 119 | 0.0 | 4.8 | 0.00 | 0.23 | 0.23 | 82 | 1023.5 |
| 20260831103032 | 7 | 64 | 1.6 | 9.7 | 0.00 | 0.23 | 0.23 | 84 | 1023.3 |
| 20260831101527 | 7 | 242 | 0.0 | 1.6 | 0.00 | 0.23 | 0.23 | 84 | 1023.3 |
| 20260831100032 | 7 | 242 | 0.0 | 1.6 | 0.03 | 0.23 | 0.23 | 85 | 1023.3 |
| 20260831094638 | 7 | 242 | 0.0 | 1.6 | 0.05 | 0.23 | 0.23 | 85 | 1023.2 |
| 20260831093037 | 7 | 242 | 0.0 | 1.6 | 0.10 | 0.23 | 0.23 | 84 | 1023.1 |
| 20260831091521 | 7 | 242 | 0.0 | 1.6 | 0.10 | 0.23 | 0.23 | 84 | 1023.2 |
| 20260831090020 | 7 | 315 | 0.0 | 4.8 | 0.15 | 0.20 | 0.20 | 84 | 1023.0 |
| 20260831084517 | 7 | 348 | 0.0 | 3.2 | 0.18 | 0.18 | 0.18 | 83 | 1022.6 |
| 20260831083014 | 7 | 170 | 0.0 | 1.6 | 0.13 | 0.13 | 0.13 | 81 | 1022.6 |
| 20260831081511 | 8 | 170 | 0.0 | 3.2 | 0.13 | 0.13 | 0.13 | 78 | 1022.1 |
| 20260831080107 | 8 | 14 | 0.0 | 6.4 | 0.08 | 0.08 | 0.08 | 76 | 1021.7 |
| 20260831074504 | 9 | 205 | 0.0 | 6.4 | 0.00 | 0.00 | 0.00 | 71 | 1021.4 |
| 20260831073104 | 9 | 39 | 0.0 | 6.4 | 0.00 | 0.00 | 0.00 | 65 | 1021.0 |
| 20260831071612 | 10 | 211 | 1.6 | 14.5 | 0.00 | 0.00 | 0.00 | 63 | 1020.6 |
| 20260831070057 | 10 | 231 | 3.2 | 11.3 | 0.00 | 0.00 | 0.00 | 60 | 1020.2 |
| 20260831064604 | 10 | 100 | 1.6 | 6.4 | 0.00 | 0.00 | 0.00 | 60 | 1020.4 |